Location: St. Louis
(38.6270°N, 90.1994°W)
Time: 20:27:25
(UTC-05:00)

deb Delta - Pass Details

Date: 03 July 2022
Orbit: 1084 x 1202 km, 99.8° (Epoch: 13 August)

Event Time Altitude Azimuth Distance (km) Brightness Sun altitude
Exits shadow 03:01:37 32° 244° (WSW) 1,926 ? -22.6°
Maximum altitude 03:02:49 34° 263° (W) 1,867 ? -22.5°
Drops below altitude 10° 03:09:14 10° 327° (NNW) 3,132 ? -21.9°
Sets 03:12:10 0° 336° (NNW) 4,088 ? -21.6°
